Minneapolis Flying Cloud, MN

4:15 AM CDT on May 23, 2017 (GMT -0500)
Flying Cloud

Weather History for KFCM - March, 2014

Change the Weather History Date:

Wednesday, March 12, 2014

  Actual Average Record
Temperature  
Mean Temperature 23 °F -  
Max Temperature 28 °F 34 °F 70 °F (2016)
Min Temperature 18 °F 18 °F -6 °F (2009)
Degree Days  
Heating Degree Days 42    
Moisture  
Dew Point 12 °F    
Average Humidity 60    
Maximum Humidity 74    
Minimum Humidity 49    
Precipitation  
Precipitation 0.00 in - - ()
Sea Level Pressure  
Sea Level Pressure 30.11 in    
Wind  
Wind Speed 10 mph (NW)    
Max Wind Speed 16 mph    
Max Gust Speed 21 mph    
Visibility 10 miles    
Events      
Averages and records for this station are not official NWS values.
T = Trace of Precipitation, MM = Missing Value Source: NWS Daily Summary

Daily Weather History Graph

Daily Weather History Graph

Search for Another Location

Airport or City:

Trip Planner

Search our weather history database for the weather conditions in past years. The results will help you decide how hot, cold, wet, or windy it might be!

Date:

Astronomy

Mar. 12, 2014 Rise Set
Actual Time 7:31 AM CDT 7:16 PM CDT
Civil Twilight 7:02 AM CDT 7:45 PM CDT
Nautical Twilight 6:28 AM CDT 8:19 PM CDT
Astronomical Twilight 5:54 AM CDT 8:53 PM CDT
Moon 3:40 PM CDT (3/12) 5:11 AM CDT (3/12)
Length of Visible Light 12h 42m
Length of Day
11h 44m
Waxing Gibbous, 85% of the Moon is Illuminated
Mar 12
Waxing Gibbous
Mar 16
Full
Mar 23
Last Quarter
Mar 30
New
Apr 7
First Quarter

Hourly Weather History & Observations

Time (CDT) Temp. Windchill Dew Point Humidity Pressure Visibility Wind Dir Wind Speed Gust Speed Precip Events Conditions
12:53 AM 28.9 °F 17.7 °F 19.0 °F 67% 30.04 in 10.0 mi NNW 15.0 mph 20.7 mph N/A   Clear
1:53 AM 27.0 °F 16.7 °F 16.0 °F 63% 30.05 in 10.0 mi NNW 11.5 mph 19.6 mph N/A   Clear
2:53 AM 26.1 °F 15.0 °F 14.0 °F 60% 30.06 in 10.0 mi NW 12.7 mph - N/A   Clear
3:53 AM 24.1 °F 11.0 °F 10.9 °F 57% 30.06 in 10.0 mi NNW 16.1 mph - N/A   Clear
4:53 AM 21.9 °F 11.0 °F 10.0 °F 60% 30.07 in 10.0 mi NNW 10.4 mph - N/A   Clear
5:53 AM 19.9 °F 8.6 °F 10.0 °F 65% 30.09 in 10.0 mi NNW 10.4 mph - N/A   Clear
6:53 AM 19.0 °F 8.2 °F 9.0 °F 65% 30.11 in 10.0 mi NNW 9.2 mph - N/A   Clear
7:53 AM 18.0 °F 6.1 °F 8.1 °F 65% 30.13 in 10.0 mi NNW 10.4 mph - N/A   Clear
8:53 AM 19.0 °F 8.2 °F 8.1 °F 62% 30.15 in 10.0 mi NNW 9.2 mph - N/A   Clear
9:53 AM 19.9 °F 9.3 °F 9.0 °F 62% 30.16 in 10.0 mi NNW 9.2 mph - N/A   Clear
10:53 AM 23.0 °F 13.1 °F 10.9 °F 60% 30.16 in 10.0 mi NNW 9.2 mph - N/A   Clear
11:53 AM 24.1 °F 16.0 °F 10.9 °F 57% 30.15 in 10.0 mi NNW 6.9 mph - N/A   Clear
12:53 PM 26.1 °F 18.4 °F 12.0 °F 55% 30.15 in 10.0 mi NNW 6.9 mph - N/A   Clear
1:53 PM 27.0 °F 18.0 °F 12.9 °F 56% 30.15 in 10.0 mi NW 9.2 mph - N/A   Clear
2:53 PM 27.0 °F 20.5 °F 10.9 °F 51% 30.12 in 10.0 mi NW 5.8 mph - N/A   Clear
3:53 PM 28.0 °F 18.6 °F 10.9 °F 49% 30.12 in 10.0 mi NW 10.4 mph - N/A   Clear
4:53 PM 28.9 °F 21.1 °F 12.0 °F 49% 30.12 in 10.0 mi NNW 8.1 mph - N/A   Clear
5:53 PM 28.0 °F 20.0 °F 12.0 °F 51% 30.11 in 10.0 mi West 8.1 mph - N/A   Clear
6:53 PM 27.0 °F 21.6 °F 10.9 °F 51% 30.12 in 10.0 mi West 4.6 mph - N/A   Clear
7:53 PM 25.0 °F 20.7 °F 12.9 °F 60% 30.13 in 10.0 mi WSW 3.5 mph - N/A   Scattered Clouds
8:53 PM 24.1 °F 19.7 °F 12.0 °F 60% 30.13 in 10.0 mi WSW 3.5 mph - N/A   Clear
9:53 PM 21.9 °F 17.2 °F 12.9 °F 68% 30.11 in 10.0 mi South 3.5 mph - N/A   Clear
10:53 PM 21.0 °F 14.6 °F 12.9 °F 71% 30.09 in 10.0 mi SSE 4.6 mph - N/A   Clear
11:53 PM 19.0 °F 11.1 °F 12.0 °F 74% 30.06 in 10.0 mi SSE 5.8 mph - N/A   Clear